Tracking 30995 objects as of 7-Jul-2025
HD Live streaming from Space Station
objects crossing your sky now

IRIDIUM 47 DEB

Track IRIDIUM 47 DEB now!
10-day predictions


NORAD ID: 40254
Int'l Code: 1997-082P
Perigee: 664.4 km
Apogee: 809.8 km
Inclination: 86.0 °
Period: 99.4 minutes
Semi major axis: 7108 km
RCS: Unknown
Launch date: December 20, 1997
Source: United States (US)
Launch site: AIR FORCE WESTERN TEST RANGE (AFWTR)

Note: This is SATELLITE DEBRIS
Your satellite tracking list
Your tracking list is empty




NASA's NSSDC Master Catalog

Two Line Element Set (TLE):
1 40254U 97082P   25183.86166337  .00009657  00000-0  23939-2 0  9995
2 40254  85.9994  26.8316 0102292 254.7980 104.1894 14.48670821551467
Source of the keplerian elements: AFSPC